Wind_Speed
15 15 14 15 15 15 15 15 15 15 16 16 16 15 15 15 15 15 14 14 15 16 16 15 15 15 16 16 17 17 17 17 17 17 17 16 16 16 16 16 17 16 16 16
15 15 14 15 15 16 15 15 15 15 16 16 16 16 16 15 15 15 14 15 16 17 17 17 17 17 18 18 18 18 18 17 17 18 17 17 16 17 17 17 17 17 16 16
15 15 15 16 15 16 15 15 15 16 16 15 16 16 16 16 16 15 15 16 17 18 18 18 18 18 18 18 18 18 17 18 18 18 18 17 17 17 17 17 17 17 17 17
15 16 16 17 17 16 14 14 15 15 15 15 15 16 17 16 16 16 16 17 18 19 18 18 18 17 17 17 17 17 17 18 18 19 18 18 17 17 17 17 17 18 17 16
16 16 17 17 17 16 14 14 14 15 15 15 16 17 16 17 17 17 17 18 19 19 18 17 17 17 16 17 17 17 17 18 18 19 19 18 17 17 16 16 16 17 17 17
16 17 17 17 16 16 15 14 14 14 15 16 16 17 16 16 17 17 17 18 19 19 19 18 17 17 17 17 17 18 19 19 19 19 20 20 19 18 18 17 16 16 17 17
18 18 18 17 16 17 16 14 13 13 14 15 16 17 16 16 16 16 16 17 17 19 19 18 18 18 18 17 18 18 18 19 19 19 19 19 18 17 17 17 17 17 16 16
18 18 18 17 18 18 17 15 15 14 14 14 16 16 16 16 16 15 15 16 17 17 18 17 17 18 18 18 18 18 18 18 18 18 17 16 16 15 14 15 16 17 17 16
18 18 18 18 19 18 16 16 15 15 15 15 15 16 16 15 15 15 14 15 16 16 16 16 17 17 18 18 18 18 17 18 18 17 16 15 14 14 13 14 15 16 16 16
17 18 19 19 18 18 17 17 16 15 15 15 15 16 15 15 15 15 15 15 15 15 15 16 16 17 17 17 17 17 16 17 17 17 16 15 14 14 15 14 15 15 15 15
17 18 18 19 19 18 17 18 17 16 16 15 14 14 15 16 15 15 15 15 15 15 15 15 15 16 17 17 17 16 15 16 16 15 15 14 15 15 15 15 15 14 14 14
18 18 18 18 19 19 18 17 17 17 16 16 15 15 16 15 16 16 15 15 15 15 15 15 15 15 16 17 16 16 16 15 15 14 14 14 15 15 15 15 15 14 14 14
18 19 18 18 19 19 18 18 18 17 17 17 16 16 16 16 16 15 15 15 15 15 16 16 16 15 15 16 16 16 16 15 14 14 13 14 14 15 15 14 15 15 14 14
20 20 19 19 19 20 19 19 19 18 18 18 17 16 16 17 16 16 16 16 16 16 16 16 15 15 15 15 16 15 15 14 13 13 14 14 14 14 14 14 14 14 14 14
21 21 20 20 20 20 20 20 20 20 20 19 18 18 17 17 17 17 17 17 17 17 17 16 15 15 15 16 15 13 13 13 13 13 14 14 14 14 14 14 14 14 14 14
21 22 21 21 21 21 21 21 20 20 19 19 19 19 19 18 18 18 18 18 17 17 17 17 17 17 16 16 15 14 14 14 14 14 14 14 14 14 14 15 14 14 14 14
21 21 21 20 21 21 23 21 20 20 20 19 19 19 19 18 18 17 17 18 18 18 18 18 18 17 18 17 16 15 15 16 16 15 16 16 15 15 15 15 15 15 15 15
22 22 22 21 21 23 23 22 21 21 20 20 20 19 19 18 18 18 18 18 18 18 18 18 18 18 18 18 17 16 16 17 17 17 17 17 16 15 15 15 16 16 16 15
24 23 23 23 23 24 24 22 21 20 20 20 20 20 19 18 18 18 18 18 18 19 19 19 19 19 19 18 18 16 16 17 18 19 18 17 17 17 17 17 17 17 17 16
24 24 24 24 24 24 25 23 22 22 22 21 21 21 20 19 19 19 19 19 19 19 19 18 19 19 18 18 17 17 17 18 19 19 18 18 18 18 18 18 17 17 18 18
23 23 23 23 24 25 26 24 23 24 24 23 22 22 21 20 20 19 19 19 20 20 20 20 20 19 19 19 18 18 18 18 18 18 18 18 18 18 18 19 18 18 18 19
23 23 24 24 24 26 26 25 25 24 23 24 23 22 21 21 20 19 19 19 19 20 20 20 20 20 20 20 20 20 19 19 19 19 19 18 19 19 19 20 20 20 20 20
24 25 25 25 25 25 26 25 25 25 25 24 23 22 22 21 21 20 20 20 20 20 20 20 20 20 20 20 20 21 21 21 21 21 20 20 20 21 21 21 21 21 21 21
25 25 25 25 26 26 27 26 25 25 24 23 23 23 22 22 22 21 21 21 21 21 20 20 20 20 20 20 21 21 21 21 21 22 22 22 22 22 22 22 22 22 21 21
25 26 26 27 27 28 27 26 26 25 25 24 24 24 24 23 23 23 22 22 22 21 21 21 21 21 21 21 22 22 22 22 22 23 23 23 23 22 22 22 22 22 22 21
24 25 25 25 26 26 26 26 25 25 25 24 25 25 24 24 24 24 23 23 22 22 22 22 22 22 22 22 22 22 22 22 22 23 24 24 24 23 24 24 24 23 22 21
Wind_Direction
237 236 238 238 238 239 241 245 249 251 252 253 255 254 254 256 261 266 269 271 271 274 277 277 277 279 279 280 283 286 287 286 285 285 285 286 287 287 286 286 285 286 288 285
237 236 238 240 239 241 244 247 250 252 253 253 256 256 258 257 261 265 267 269 271 273 277 279 280 282 281 282 283 286 288 288 287 287 286 285 283 283 284 285 285 285 285 285
236 235 236 238 240 243 244 248 250 252 254 256 258 258 263 261 262 263 265 268 271 273 277 280 278 282 283 282 285 284 287 288 286 286 286 285 283 283 284 286 285 285 284 286
234 234 236 237 239 244 246 246 250 253 256 259 260 260 264 265 264 266 268 269 272 273 276 279 280 283 283 283 285 286 286 287 283 283 284 282 281 283 284 286 285 285 287 288
239 237 237 237 240 244 246 248 250 253 258 262 263 264 265 264 266 269 270 271 270 272 273 276 279 282 283 283 283 284 285 287 286 285 283 282 281 281 283 286 285 284 286 288
243 239 236 237 239 243 243 248 253 255 260 264 266 266 266 268 270 274 274 272 270 269 272 276 279 282 284 284 284 286 287 287 287 286 282 281 280 279 281 282 283 284 287 290
242 241 238 237 239 242 242 245 254 258 260 266 268 267 268 271 274 278 276 275 274 272 274 276 279 282 281 282 284 287 289 289 290 288 283 282 281 282 282 279 280 283 285 289
243 243 241 239 239 242 243 242 244 253 260 264 270 273 276 278 279 279 279 279 278 277 276 277 279 281 280 282 285 287 290 291 291 290 287 285 284 284 284 282 282 282 280 280
244 244 245 244 244 244 245 244 247 257 262 264 269 276 282 284 283 281 284 283 280 279 278 280 280 281 282 284 288 290 291 292 292 293 291 284 282 284 287 287 285 284 281 279
245 245 245 247 247 246 245 248 248 250 259 264 270 278 283 286 285 287 288 286 283 281 281 281 281 282 283 284 288 290 290 290 290 291 287 283 282 282 286 286 287 286 285 282
243 242 243 248 249 249 249 246 246 251 256 262 269 273 282 287 288 288 287 286 285 283 282 281 281 284 283 283 287 288 289 286 287 288 286 283 286 288 288 287 289 290 288 284
239 240 244 247 250 249 247 245 245 248 254 262 270 275 281 287 287 286 287 287 284 283 282 281 281 283 283 284 286 288 289 284 284 286 286 285 287 288 288 289 289 291 288 285
239 240 243 247 251 250 244 244 245 250 255 262 270 275 282 286 283 282 283 286 286 285 285 286 284 284 287 289 286 285 286 283 281 284 287 289 290 290 289 289 290 290 288 286
241 240 242 244 249 250 248 248 247 250 256 263 268 273 279 281 281 281 280 282 285 286 286 284 282 285 288 288 285 283 282 281 282 285 288 290 292 292 291 291 291 291 292 289
240 241 242 244 246 245 249 249 250 254 258 263 268 273 276 277 278 281 281 281 282 283 282 280 280 283 286 287 286 284 282 280 283 287 288 289 292 292 290 290 293 295 293 291
241 244 246 247 246 245 248 251 254 255 258 261 266 270 273 275 277 279 278 278 279 280 281 281 281 281 282 282 283 282 281 279 282 286 288 290 292 294 295 293 291 291 290 290
239 242 243 246 248 250 252 252 254 255 258 262 265 269 271 272 274 275 277 279 280 279 278 278 279 278 280 282 283 282 280 278 281 285 289 292 293 294 295 294 290 288 289 289
241 243 246 248 249 252 256 255 254 256 258 261 265 268 270 270 272 273 276 278 277 276 274 275 277 277 278 280 280 280 279 281 281 282 285 288 290 291 293 292 291 287 285 286
244 246 248 248 250 254 256 254 254 256 258 260 263 266 268 270 270 271 274 275 274 272 270 272 274 274 274 275 279 279 281 281 283 284 283 284 287 288 288 288 288 286 285 284
245 248 250 249 249 252 254 255 256 260 261 260 261 263 267 269 270 271 272 272 271 272 272 273 271 270 273 274 278 281 281 281 282 285 285 285 286 287 286 287 286 285 285 285
246 248 249 251 252 253 256 259 259 261 262 262 262 264 265 266 268 270 271 272 271 274 274 276 276 273 274 277 277 281 282 281 284 288 290 288 286 287 288 288 286 285 285 286
246 247 247 249 251 253 257 257 257 260 263 263 263 263 263 265 267 268 270 272 272 273 273 275 276 273 273 275 276 278 280 280 282 286 289 290 289 288 287 287 286 285 284 284
246 246 246 248 251 254 255 257 257 258 261 261 262 263 263 264 265 267 270 270 271 272 274 274 274 272 272 271 273 277 278 278 280 282 284 287 289 289 287 285 286 285 284 283
246 247 247 248 251 253 255 258 258 259 260 260 261 262 262 263 264 266 269 270 271 272 272 273 273 271 271 273 275 276 277 278 280 281 283 285 287 288 288 287 286 283 282 282
246 247 248 250 251 251 253 256 257 258 259 258 258 260 261 262 263 265 268 269 271 271 272 274 273 272 271 273 277 277 277 278 280 282 284 286 287 287 288 290 289 286 284 281
247 249 251 251 252 252 252 252 253 255 256 256 256 259 260 260 262 263 266 267 267 268 269 272 273 272 272 274 276 276 276 277 280 282 284 286 286 286 287 289 287 284 284 282
Height
5836 5839 5841 5843 5846 5848 5849 5850 5851 5851 5851 5851 5851 5851 5852 5852 5852 5852 5852 5852 5852 5851 5850 5849 5848 5847 5846 5846 5844 5843 5841 5840 5838 5837 5835 5834 5833 5831 5830 5828 5827 5826 5824 5823
5834 5836 5839 5840 5842 5844 5845 5847 5848 5848 5848 5848 5848 5848 5848 5848 5849 5849 5849 5848 5848 5847 5846 5845 5844 5843 5843 5842 5840 5839 5837 5836 5834 5833 5831 5830 5829 5827 5826 5824 5823 5821 5820 5819
5831 5834 5835 5837 5838 5840 5841 5843 5844 5845 5845 5845 5845 5845 5845 5845 5845 5845 5845 5844 5844 5843 5842 5841 5840 5839 5838 5837 5836 5835 5833 5832 5830 5828 5827 5826 5824 5823 5822 5820 5819 5817 5816 5815
5828 5830 5832 5833 5835 5836 5838 5840 5841 5841 5842 5842 5843 5843 5843 5842 5841 5841 5841 5840 5840 5839 5838 5837 5836 5835 5834 5833 5832 5830 5829 5828 5826 5824 5823 5821 5820 5819 5818 5816 5815 5813 5811 5810
5825 5827 5828 5830 5832 5833 5835 5836 5836 5837 5838 5839 5839 5839 5840 5838 5838 5837 5837 5836 5836 5835 5834 5833 5831 5831 5830 5829 5827 5826 5825 5823 5822 5820 5818 5817 5816 5815 5813 5812 5811 5809 5807 5806
5822 5823 5824 5826 5828 5829 5830 5832 5833 5833 5834 5835 5835 5835 5836 5834 5834 5833 5833 5832 5831 5830 5830 5829 5827 5826 5825 5824 5823 5822 5820 5818 5817 5815 5814 5812 5811 5810 5809 5807 5806 5805 5803 5802
5818 5819 5820 5822 5824 5825 5826 5829 5830 5831 5832 5832 5831 5831 5831 5830 5829 5829 5828 5827 5826 5825 5825 5824 5823 5822 5821 5820 5819 5817 5816 5814 5812 5810 5809 5808 5806 5805 5804 5803 5801 5800 5799 5798
5814 5816 5816 5818 5820 5821 5822 5825 5827 5829 5830 5830 5827 5826 5827 5826 5825 5824 5823 5822 5821 5821 5820 5819 5818 5817 5817 5816 5814 5813 5811 5810 5808 5806 5804 5803 5802 5801 5800 5798 5797 5795 5794 5793
5811 5813 5813 5814 5815 5817 5818 5820 5822 5823 5824 5824 5824 5823 5823 5821 5820 5819 5818 5817 5817 5816 5815 5814 5814 5813 5812 5811 5810 5808 5807 5805 5803 5802 5800 5799 5798 5797 5795 5794 5792 5791 5789 5788
5806 5808 5809 5809 5811 5812 5814 5815 5816 5818 5819 5820 5820 5820 5819 5817 5816 5815 5814 5813 5812 5811 5811 5810 5809 5808 5808 5807 5805 5804 5802 5801 5799 5798 5796 5795 5794 5793 5791 5790 5788 5786 5784 5783
5801 5803 5805 5805 5806 5807 5809 5810 5811 5813 5815 5816 5817 5818 5814 5813 5812 5811 5810 5809 5808 5807 5806 5806 5805 5804 5803 5802 5801 5799 5798 5797 5795 5794 5792 5791 5790 5788 5787 5785 5784 5782 5780 5779
5796 5798 5800 5802 5803 5803 5804 5805 5807 5809 5809 5810 5811 5815 5809 5809 5808 5807 5806 5805 5804 5803 5802 5801 5800 5799 5798 5797 5796 5795 5794 5792 5791 5790 5788 5787 5786 5784 5783 5781 5779 5777 5776 5774
5791 5793 5795 5797 5799 5799 5799 5800 5802 5804 5805 5806 5807 5810 5805 5804 5803 5802 5802 5801 5799 5798 5797 5796 5795 5795 5794 5793 5792 5790 5789 5788 5787 5786 5784 5783 5782 5780 5779 5777 5775 5773 5772 5770
5786 5788 5791 5793 5794 5794 5794 5795 5797 5798 5799 5800 5801 5802 5801 5799 5798 5798 5797 5796 5795 5794 5793 5792 5791 5790 5789 5788 5787 5786 5785 5784 5783 5781 5780 5779 5778 5776 5774 5773 5771 5769 5768 5766
5780 5782 5784 5786 5787 5789 5790 5791 5792 5793 5794 5795 5796 5796 5795 5794 5794 5793 5792 5791 5790 5789 5788 5787 5787 5786 5785 5784 5783 5782 5781 5780 5778 5777 5776 5775 5773 5772 5770 5768 5767 5765 5764 5762
5774 5776 5778 5780 5781 5782 5784 5785 5786 5787 5788 5789 5790 5790 5789 5789 5788 5788 5787 5786 5786 5785 5784 5783 5782 5781 5781 5780 5779 5778 5777 5776 5775 5773 5772 5770 5769 5767 5766 5764 5763 5761 5760 5759
5769 5771 5773 5774 5776 5777 5778 5779 5781 5782 5782 5783 5784 5785 5784 5783 5783 5782 5782 5781 5781 5780 5779 5778 5777 5777 5776 5775 5774 5773 5772 5771 5770 5769 5767 5766 5764 5763 5762 5760 5759 5757 5756 5754
5763 5765 5766 5768 5770 5771 5774 5773 5774 5775 5776 5777 5777 5778 5778 5778 5777 5777 5776 5776 5775 5774 5773 5773 5772 5771 5771 5770 5769 5768 5767 5766 5765 5764 5762 5761 5760 5758 5757 5756 5754 5753 5752 5750
5756 5758 5760 5762 5763 5764 5766 5767 5768 5769 5770 5771 5771 5772 5772 5772 5772 5771 5771 5770 5770 5769 5768 5767 5767 5766 5765 5765 5764 5763 5762 5761 5759 5758 5757 5756 5755 5754 5753 5751 5750 5749 5747 5745
5749 5751 5753 5754 5756 5758 5759 5760 5761 5763 5763 5764 5764 5765 5766 5766 5766 5766 5766 5765 5764 5764 5763 5762 5761 5761 5760 5759 5758 5757 5756 5755 5754 5753 5751 5750 5750 5749 5747 5746 5745 5743 5742 5740
5742 5744 5745 5747 5748 5749 5750 5752 5755 5757 5757 5757 5757 5758 5759 5759 5760 5760 5759 5759 5758 5758 5757 5757 5756 5755 5755 5754 5753 5752 5751 5750 5749 5747 5746 5745 5744 5743 5742 5740 5739 5738 5736 5735
5735 5737 5738 5740 5741 5744 5743 5745 5747 5749 5749 5750 5750 5751 5752 5752 5753 5753 5753 5753 5752 5752 5751 5750 5750 5749 5749 5748 5748 5747 5746 5744 5743 5742 5741 5739 5738 5737 5736 5735 5733 5732 5730 5729
5727 5729 5731 5733 5735 5735 5736 5737 5739 5740 5741 5742 5743 5744 5745 5746 5746 5747 5747 5746 5746 5745 5745 5744 5744 5743 5743 5742 5742 5741 5740 5738 5737 5736 5735 5734 5732 5731 5730 5728 5727 5725 5724 5723
5719 5721 5723 5724 5725 5727 5728 5730 5731 5732 5734 5735 5736 5737 5738 5739 5739 5740 5740 5739 5739 5739 5738 5738 5737 5736 5736 5735 5735 5734 5733 5732 5731 5730 5728 5727 5726 5725 5723 5722 5720 5719 5718 5716
5711 5713 5715 5716 5718 5719 5720 5721 5723 5724 5726 5727 5728 5729 5730 5731 5732 5732 5732 5732 5732 5732 5731 5731 5730 5730 5729 5729 5728 5727 5726 5725 5724 5723 5721 5720 5719 5718 5717 5715 5714 5712 5711 5710
5703 5705 5707 5708 5709 5711 5712 5714 5715 5716 5718 5719 5721 5722 5722 5723 5724 5724 5725 5725 5725 5724 5724 5724 5723 5723 5722 5721 5721 5720 5719 5718 5717 5716 5714 5713 5712 5710 5709 5708 5707 5705 5704 5703